CW0238 Weather Reports


Display with metric or nautical units.
time (UTC)temp
F
wind
direction
speed
MPH
gust
MPH
rain 1hr
in
rain 24hr
in
rain mn
in
humidity
%
barometer
mb
20260507192758 63 245 1.0 4.0 0.00 0.00 0.00 35 1014.5
20260507192300 64 300 0.0 3.0 0.00 0.00 0.00 41 1014.5
20260507192018 63 285 0.0 2.0 0.00 0.00 0.00 38 1014.5
20260507191254 64 40 0.0 3.0 0.00 0.00 0.00 37 1014.6
20260507190755 64 219 1.0 7.0 0.00 0.00 0.00 35 1014.6
20260507190255 63 238 0.0 7.0 0.00 0.00 0.00 37 1014.6
20260507185758 64 197 0.0 7.0 0.00 0.00 0.00 37 1014.7
20260507185516 64 303 0.0 7.0 0.00 0.00 0.00 42 1014.7
20260507184744 63 38 1.0 4.0 0.00 0.00 0.00 39 1014.6
20260507184248 63 286 1.0 4.0 0.00 0.00 0.00 31 1014.7
20260507183743 64 272 1.0 9.0 0.00 0.00 0.00 36 1014.8
20260507183243 64 292 1.0 9.0 0.00 0.00 0.00 33 1014.9
20260507182740 63 324 1.0 6.0 0.00 0.00 0.00 34 1014.8
20260507182456 61 209 0.0 2.0 0.00 0.00 0.00 39 1014.8
20260507181737 61 208 1.0 5.0 0.00 0.00 0.00 33 1014.8
20260507181234 62 345 1.0 5.0 0.00 0.00 0.00 36 1014.8
20260507180735 62 343 1.0 8.0 0.00 0.00 0.00 31 1014.9
20260507180233 62 260 2.0 10.0 0.00 0.00 0.00 30 1014.9
20260507175728 62 351 1.0 10.0 0.00 0.00 0.00 33 1015.0
20260507175227 61 256 0.0 2.0 0.00 0.00 0.00 38 1015.0
20260507174728 62 247 1.0 5.0 0.00 0.00 0.00 38 1015.1
20260507174226 61 180 1.0 5.0 0.00 0.00 0.00 32 1015.3
20260507173727 61 138 1.0 6.0 0.00 0.00 0.00 31 1015.4
20260507173224 60 293 0.0 6.0 0.00 0.00 0.00 40 1015.4
20260507172723 60 303 0.0 2.0 0.00 0.00 0.00 33 1015.3
20260507171720 60 32 1.0 4.0 0.00 0.00 0.00 34 1015.6
20260507171220 60 30 1.0 6.0 0.00 0.00 0.00 37 1015.6
20260507170718 61 86 1.0 6.0 0.00 0.00 0.00 34 1015.7
20260507170219 60 350 0.0 3.0 0.00 0.00 0.00 36 1015.7
20260507165718 60 35 1.0 5.0 0.00 0.00 0.00 41 1015.7
20260507165220 60 259 1.0 6.0 0.00 0.00 0.00 37 1015.8
20260507164715 60 225 1.0 6.0 0.00 0.00 0.00 37 1015.9
20260507164215 60 223 1.0 12.0 0.00 0.00 0.00 37 1015.9
20260507163940 60 355 3.0 12.0 0.00 0.00 0.00 37 1016.0
20260507163211 60 229 2.0 12.0 0.00 0.00 0.00 35 1016.0
20260507162939 60 269 1.0 9.0 0.00 0.00 0.00 36 1016.2
20260507162211 60 317 2.0 9.0 0.00 0.00 0.00 37 1016.3
20260507161928 60 244 1.0 10.0 0.00 0.00 0.00 40 1016.2
20260507161208 60 286 1.0 10.0 0.00 0.00 0.00 38 1016.2
20260507160709 60 61 1.0 10.0 0.00 0.00 0.00 40 1016.1
20260507160204 59 144 1.0 10.0 0.00 0.00 0.00 39 1016.2
20260507155703 58 274 0.0 3.0 0.00 0.00 0.00 42 1016.2
20260507155203 58 56 0.0 3.0 0.00 0.00 0.00 42 1016.1
20260507154657 58 181 1.0 10.0 0.00 0.00 0.00 41 1016.2
20260507154202 58 263 1.0 10.0 0.00 0.00 0.00 41 1016.3
20260507153657 57 327 0.0 5.0 0.00 0.00 0.00 43 1016.2
20260507153429 57 300 0.0 3.0 0.00 0.00 0.00 45 1016.1
20260507152653 56 25 0.0 1.0 0.00 0.00 0.00 47 1016.1
20260507152151 56 24 0.0 8.0 0.00 0.00 0.00 50 1016.1
20260507151651 56 320 1.0 8.0 0.00 0.00 0.00 47 1016.2
20260507151149 55 334 0.0 3.0 0.00 0.00 0.00 46 1016.2
20260507150647 55 264 0.0 2.0 0.00 0.00 0.00 49 1016.2
20260507150147 55 344 0.0 2.0 0.00 0.00 0.00 50 1016.2
20260507145645 55 327 0.0 2.0 0.00 0.00 0.00 50 1016.2
20260507144643 54 69 0.0 3.0 0.00 0.00 0.00 50 1016.1
20260507144141 54 300 1.0 8.0 0.00 0.00 0.00 50 1016.2
20260507143636 53 274 1.0 8.0 0.00 0.00 0.00 49 1016.2
20260507143136 53 242 0.0 5.0 0.00 0.00 0.00 50 1016.2
20260507142635 53 30 0.0 3.0 0.00 0.00 0.00 53 1016.3
20260507142131 52 277 0.0 3.0 0.00 0.00 0.00 55 1016.3
20260507141627 52 348 0.0 0.0 0.00 0.00 0.00 57 1016.1
20260507141356 51 348 0.0 1.0 0.00 0.00 0.00 56 1016.1
20260507140624 51 348 0.0 1.0 0.00 0.00 0.00 58 1016.2
20260507140129 51 348 0.0 2.0 0.00 0.00 0.00 59 1016.2
20260507135847 50 348 0.0 3.0 0.00 0.00 0.00 60 1016.3
20260507135118 50 298 0.0 3.0 0.00 0.00 0.00 60 1016.3
20260507134622 49 48 0.0 1.0 0.00 0.00 0.00 65 1016.2
20260507134118 49 48 0.0 2.0 0.00 0.00 0.00 66 1016.2
20260507133617 48 48 0.0 2.0 0.00 0.00 0.00 73 1016.1
20260507133116 47 57 0.0 0.0 0.00 0.00 0.00 78 1016.2
20260507132609 47 57 0.0 0.0 0.00 0.00 0.00 81 1016.2
20260507132108 46 57 0.0 1.0 0.00 0.00 0.00 82 1016.3
20260507131609 46 57 0.0 1.0 0.00 0.00 0.00 85 1016.3
20260507131109 46 51 0.0 0.0 0.00 0.00 0.00 87 1016.2
20260507130612 45 51 0.0 0.0 0.00 0.00 0.00 88 1016.2
20260507130108 45 51 0.0 0.0 0.00 0.00 0.00 89 1016.3
20260507125824 44 51 0.0 0.0 0.00 0.00 0.00 90 1016.3
20260507125105 44 51 0.0 0.0 0.00 0.00 0.00 90 1016.3
20260507124601 44 51 0.0 0.0 0.00 0.00 0.00 90 1016.3
20260507124102 44 49 0.0 0.0 0.00 0.00 0.00 91 1016.2
20260507123602 43 49 0.0 0.0 0.00 0.00 0.00 90 1016.1
20260507123101 43 49 0.0 0.0 0.00 0.00 0.00 90 1016.2
20260507122604 43 49 0.0 0.0 0.00 0.00 0.00 90 1016.2
20260507122100 43 49 0.0 0.0 0.00 0.00 0.00 90 1016.2
20260507121826 43 49 0.0 0.0 0.00 0.00 0.00 90 1016.2
20260507121100 42 49 0.0 0.0 0.00 0.00 0.00 90 1016.3
20260507120558 42 49 0.0 0.0 0.00 0.00 0.00 90 1016.3
20260507120057 42 49 0.0 0.0 0.00 0.00 0.00 89 1016.4
20260507115556 42 49 0.0 0.0 0.00 0.00 0.00 89 1016.3
20260507115055 42 49 0.0 0.0 0.00 0.00 0.00 89 1016.3
20260507114836 42 49 0.0 0.0 0.00 0.00 0.00 89 1016.4
20260507114054 42 49 0.0 0.0 0.00 0.00 0.00 88 1016.4
20260507113555 42 49 0.0 0.0 0.00 0.00 0.00 88 1016.4
20260507113049 42 49 0.0 0.0 0.00 0.00 0.00 88 1016.4
20260507112548 42 49 0.0 0.0 0.00 0.00 0.00 88 1016.4
20260507112049 42 49 0.0 0.0 0.00 0.00 0.00 88 1016.4
20260507111550 42 49 0.0 0.0 0.00 0.00 0.00 88 1016.3
20260507111047 42 49 0.0 0.0 0.00 0.00 0.00 88 1016.2
20260507110541 42 49 0.0 0.0 0.00 0.00 0.00 88 1016.2
20260507110040 42 49 0.0 0.0 0.00 0.00 0.00 88 1016.1
20260507105540 42 49 0.0 0.0 0.00 0.00 0.00 88 1016.1
20260507105041 42 49 0.0 0.0 0.00 0.00 0.00 88 1016.0
20260507104539 42 49 0.0 0.0 0.00 0.00 0.00 88 1015.9
20260507104040 42 49 0.0 0.0 0.00 0.00 0.00 88 1015.8
20260507103540 42 49 0.0 0.0 0.00 0.00 0.00 88 1015.7
20260507103033 43 49 0.0 0.0 0.00 0.00 0.00 88 1015.7
20260507102535 43 49 0.0 0.0 0.00 0.00 0.00 88 1015.7
20260507102031 43 50 0.0 0.0 0.00 0.00 0.00 88 1015.6
20260507101525 43 50 0.0 0.0 0.00 0.00 0.00 88 1015.6
20260507101024 43 50 0.0 0.0 0.00 0.00 0.00 87 1015.7
20260507100523 43 50 0.0 0.0 0.00 0.00 0.00 87 1015.6
20260507100021 44 50 0.0 0.0 0.00 0.00 0.00 87 1015.6
20260507095520 44 50 0.0 0.0 0.00 0.00 0.00 87 1015.6
20260507095020 44 50 0.0 0.0 0.00 0.00 0.00 87 1015.5
20260507094739 44 50 0.0 0.0 0.00 0.00 0.00 87 1015.6
20260507094015 44 50 0.0 0.0 0.00 0.00 0.00 87 1015.5
20260507093515 44 50 0.0 0.0 0.00 0.00 0.00 87 1015.5
20260507093015 44 50 0.0 0.0 0.00 0.00 0.00 87 1015.5
20260507092515 44 50 0.0 0.0 0.00 0.00 0.00 87 1015.5
20260507092013 45 50 0.0 0.0 0.00 0.00 0.00 87 1015.4
20260507091521 45 50 0.0 0.0 0.00 0.00 0.00 87 1015.4
20260507091011 45 50 0.0 0.0 0.00 0.00 0.00 87 1015.4
20260507090514 45 50 0.0 0.0 0.00 0.00 0.00 87 1015.3
20260507090005 45 50 0.0 0.0 0.00 0.00 0.00 87 1015.3
20260507085503 45 50 0.0 0.0 0.00 0.00 0.00 87 1015.2
20260507085001 45 50 0.0 0.0 0.00 0.00 0.00 87 1015.1
20260507084500 46 50 0.0 0.0 0.00 0.00 0.00 87 1015.0
20260507083959 46 50 0.0 0.0 0.00 0.01 0.00 87 1015.0
20260507083457 46 50 0.0 0.0 0.00 0.01 0.00 87 1015.0
20260507082956 46 50 0.0 0.0 0.00 0.01 0.00 87 1014.9
20260507082456 46 50 0.0 0.0 0.00 0.01 0.00 87 1014.9
20260507081955 46 50 0.0 0.0 0.00 0.01 0.00 87 1014.8
20260507081454 46 50 0.0 0.0 0.00 0.01 0.00 87 1014.9
20260507081215 46 50 0.0 0.0 0.00 0.01 0.00 87 1014.9
20260507080459 46 50 0.0 0.0 0.00 0.01 0.00 87 1014.9
20260507075948 46 50 0.0 0.0 0.00 0.01 0.00 87 1014.9
20260507075446 46 50 0.0 0.0 0.00 0.01 0.00 87 1014.9
20260507074943 46 50 0.0 0.0 0.00 0.01 0.00 86 1014.8
20260507074443 46 50 0.0 0.0 0.00 0.01 0.00 86 1014.8
20260507073941 46 50 0.0 0.0 0.00 0.01 0.00 86 1014.7
20260507072941 47 50 0.0 0.0 0.00 0.01 0.00 86 1014.8
20260507072441 47 50 0.0 0.0 0.00 0.01 0.00 86 1014.8
20260507071944 47 50 0.0 0.0 0.00 0.01 0.00 86 1014.8
20260507071435 47 50 0.0 0.0 0.00 0.01 0.00 86 1014.7
20260507070934 47 50 0.0 0.0 0.00 0.02 0.00 86 1014.8
20260507070438 47 50 0.0 0.0 0.00 0.02 0.00 86 1014.8
20260507065934 47 50 0.0 0.0 0.00 0.04 0.00 86 1014.9
20260507065435 47 50 0.0 0.0 0.00 0.06 0.00 86 1014.7
20260507064934 47 50 0.0 0.0 0.00 0.07 0.00 86 1014.7
20260507064434 47 50 0.0 0.0 0.00 0.08 0.00 86 1015.0
20260507064200 48 50 0.0 0.0 0.00 0.09 0.00 86 1014.9
20260507063425 48 50 0.0 0.0 0.00 0.10 0.00 86 1014.8
20260507062924 48 50 0.0 0.0 0.00 0.11 0.00 86 1014.9
20260507062427 48 50 0.0 0.0 0.00 0.13 0.00 86 1015.0
20260507061923 48 50 0.0 0.0 0.00 0.15 0.00 86 1015.0
20260507061422 48 50 0.0 0.0 0.00 0.16 0.00 86 1015.1
20260507060923 48 50 0.0 0.0 0.00 0.16 0.00 86 1015.1
20260507060419 48 50 0.0 0.0 0.00 0.16 0.00 86 1014.9
20260507060141 48 50 0.0 0.0 0.00 0.16 0.00 86 1015.0
20260507055419 48 50 0.0 0.0 0.00 0.17 0.00 86 1014.9
20260507055139 49 50 0.0 0.0 0.00 0.19 0.00 86 1015.0
20260507054413 49 50 0.0 0.0 0.00 0.20 0.00 86 1015.0
20260507053913 49 50 0.0 0.0 0.00 0.21 0.00 85 1015.1
20260507053412 49 50 0.0 0.0 0.00 0.25 0.00 85 1015.0
20260507052913 49 50 0.0 0.0 0.00 0.26 0.00 85 1015.0
20260507052408 49 50 0.0 0.0 0.00 0.26 0.00 85 1014.9
20260507051906 49 50 0.0 0.0 0.00 0.27 0.00 85 1015.0
20260507051405 49 50 0.0 0.0 0.00 0.29 0.00 85 1015.0
20260507050903 49 50 0.0 0.0 0.00 0.33 0.00 85 1015.0
20260507050403 49 50 0.0 0.0 0.00 0.35 0.00 85 1015.0
20260507045901 49 50 0.0 0.0 0.00 0.37 0.00 85 1014.8
20260507045723 49 50 0.0 0.0 0.00 0.38 0.00 85 1014.8
20260507044858 49 50 0.0 0.0 0.00 0.40 0.00 85 1014.7
20260507044401 50 50 0.0 0.0 0.00 0.40 0.00 84 1014.7
20260507043856 50 50 0.0 0.0 0.00 0.41 0.00 84 1014.7
20260507043623 50 50 0.0 0.0 0.00 0.43 0.00 84 1014.7
20260507042855 50 50 0.0 0.0 0.00 0.44 0.00 84 1014.8
20260507042611 50 50 0.0 0.0 0.00 0.45 0.00 84 1014.8
20260507041850 50 50 0.0 0.0 0.00 0.45 0.00 84 1015.0
20260507041351 50 50 0.0 0.0 0.00 0.45 0.00 84 1015.1
20260507040846 50 50 0.0 0.0 0.00 0.45 0.00 84 1015.0
20260507040344 50 50 0.0 0.0 0.00 0.46 0.00 83 1014.9
20260507035848 50 50 0.0 0.0 0.00 0.46 0.46 84 1014.9
20260507035344 50 50 0.0 0.0 0.00 0.46 0.46 83 1015.0
20260507034846 51 50 0.0 0.0 0.00 0.46 0.46 83 1014.9
20260507034344 51 50 0.0 0.0 0.00 0.47 0.46 83 1015.1
20260507033845 51 50 0.0 0.0 0.00 0.47 0.46 83 1015.2
20260507033345 51 50 0.0 0.0 0.00 0.47 0.46 84 1015.2
20260507032844 51 50 0.0 0.0 0.00 0.47 0.46 84 1015.3
20260507032343 51 50 0.0 0.0 0.00 0.47 0.46 84 1015.2
20260507031841 51 50 0.0 0.0 0.00 0.48 0.46 84 1015.3
20260507031341 51 50 0.0 0.0 0.00 0.48 0.46 84 1015.2
20260507030840 51 50 0.0 0.0 0.00 0.48 0.46 84 1015.0
20260507030341 51 50 0.0 0.0 0.00 0.48 0.46 84 1015.0
20260507025838 51 50 0.0 0.0 0.00 0.48 0.46 84 1014.9
20260507025336 51 50 0.0 0.0 0.00 0.48 0.46 85 1014.9
20260507024837 51 50 0.0 0.0 0.00 0.49 0.46 84 1014.9
20260507024337 52 50 0.0 0.0 0.00 0.50 0.46 84 1014.9
20260507023837 52 50 0.0 0.0 0.00 0.52 0.46 84 1014.8
20260507023332 52 50 0.0 0.0 0.00 0.52 0.46 83 1014.7
20260507022830 52 50 0.0 0.0 0.00 0.53 0.46 83 1014.5
20260507022331 52 50 0.0 0.0 0.00 0.54 0.46 81 1014.5
20260507021826 53 50 0.0 0.0 0.00 0.54 0.46 81 1014.5
20260507021324 53 50 0.0 0.0 0.00 0.54 0.46 79 1014.5
20260507020823 53 50 0.0 0.0 0.00 0.54 0.46 79 1014.4
20260507020321 54 50 0.0 0.0 0.00 0.54 0.46 77 1014.2
20260507015816 54 50 0.0 0.0 0.00 0.54 0.46 75 1014.3
20260507015317 54 50 0.0 0.0 0.00 0.54 0.46 72 1014.2
20260507014811 54 50 0.0 0.0 0.00 0.54 0.46 71 1014.2
20260507014311 55 50 0.0 0.0 0.00 0.55 0.46 69 1014.1
20260507013811 55 50 0.0 0.0 0.00 0.55 0.46 69 1013.9
20260507013310 55 50 0.0 0.0 0.00 0.55 0.46 67 1013.9
20260507013036 56 50 0.0 0.0 0.00 0.55 0.46 65 1013.9
20260507012309 56 50 0.0 0.0 0.00 0.55 0.46 65 1013.8
20260507011808 56 50 0.0 0.0 0.00 0.55 0.46 64 1013.8
20260507011307 56 50 0.0 0.0 0.00 0.55 0.46 64 1013.9
20260507010805 56 50 0.0 0.0 0.00 0.55 0.46 64 1014.0
20260507010305 56 50 0.0 0.0 0.00 0.55 0.46 64 1014.0
20260507005805 56 50 0.0 0.0 0.00 0.55 0.46 65 1013.8
20260507005306 56 51 0.0 0.0 0.00 0.55 0.46 67 1013.7
20260507004805 56 50 0.0 0.0 0.00 0.55 0.46 67 1013.8
20260507004304 56 50 0.0 0.0 0.00 0.55 0.46 65 1013.8
20260507003808 57 50 0.0 0.0 0.00 0.55 0.46 65 1013.8
20260507003259 57 50 0.0 1.0 0.00 0.55 0.46 64 1013.8
20260507002759 57 50 0.0 1.0 0.00 0.55 0.46 62 1014.0
20260507002305 57 49 0.0 0.0 0.00 0.55 0.46 62 1013.8
20260507001754 58 49 0.0 0.0 0.00 0.55 0.46 60 1013.8
20260507001511 58 49 0.0 0.0 0.00 0.55 0.46 59 1013.8
20260507000755 58 49 0.0 0.0 0.00 0.55 0.46 61 1013.7
20260507000505 58 49 0.0 0.0 0.00 0.55 0.46 59 1013.7
20260506235748 58 49 0.0 0.0 0.00 0.55 0.46 59 1013.7
20260506235247 58 49 0.0 0.0 0.00 0.55 0.46 57 1013.6
20260506234744 58 49 0.0 0.0 0.00 0.55 0.46 56 1013.4
20260506234242 58 49 0.0 1.0 0.00 0.55 0.46 56 1013.3
20260506233740 58 49 0.0 1.0 0.00 0.56 0.46 57 1013.2
20260506233454 59 58 0.0 0.0 0.00 0.56 0.46 56 1013.1
20260506232735 59 58 0.0 0.0 0.00 0.56 0.46 58 1013.2
20260506232455 59 58 0.0 1.0 0.00 0.59 0.46 57 1013.4
20260506231729 59 58 0.0 2.0 0.00 0.61 0.46 58 1013.3
20260506231228 59 269 0.0 3.0 0.00 0.62 0.46 59 1013.4
20260506230729 59 275 0.0 3.0 0.00 0.62 0.46 58 1013.5
20260506230224 59 272 0.0 1.0 0.00 0.62 0.46 57 1013.5
20260506225724 60 274 0.0 2.0 0.00 0.62 0.46 57 1013.5
20260506225223 60 273 0.0 2.0 0.00 0.62 0.46 54 1013.4
20260506224716 60 274 0.0 2.0 0.00 0.62 0.46 56 1013.5
20260506224215 60 321 0.0 2.0 0.00 0.62 0.46 59 1013.6
20260506223718 60 342 0.0 1.0 0.00 0.63 0.46 53 1013.4
20260506223214 60 342 0.0 1.0 0.00 0.64 0.46 54 1012.9
20260506222934 60 345 0.0 1.0 0.00 0.64 0.46 53 1012.8
20260506222214 60 308 0.0 1.0 0.00 0.64 0.46 55 1012.7
20260506221712 60 308 0.0 2.0 0.00 0.64 0.46 55 1012.8
20260506221212 60 276 0.0 2.0 0.00 0.65 0.46 53 1012.8
20260506220711 60 329 0.0 1.0 0.00 0.67 0.46 54 1012.9
20260506220211 59 331 0.0 1.0 0.00 0.67 0.46 54 1012.9
20260506215710 60 333 0.0 3.0 0.00 0.67 0.46 54 1012.8
20260506215211 60 333 0.0 3.0 0.00 0.68 0.46 53 1013.0
20260506214706 60 319 0.0 3.0 0.00 0.68 0.46 55 1012.7
20260506213705 60 273 0.0 1.0 0.00 0.68 0.46 54 1012.4
20260506213424 60 296 1.0 8.0 0.00 0.68 0.46 55 1012.8
20260506212702 61 271 1.0 8.0 0.00 0.68 0.46 52 1012.9
20260506212203 61 312 0.0 2.0 0.00 0.68 0.46 52 1012.8
20260506211930 60 298 0.0 2.0 0.00 0.68 0.46 53 1012.7
20260506211203 60 288 0.0 0.0 0.00 0.68 0.46 55 1013.0
20260506210701 61 288 0.0 0.0 0.00 0.68 0.46 57 1013.3
20260506210159 61 288 0.0 1.0 0.00 0.68 0.46 55 1013.3
20260506205659 60 288 0.0 1.0 0.00 0.68 0.46 54 1013.1
20260506205155 60 288 0.0 1.0 0.00 0.68 0.46 55 1013.1
20260506204654 60 288 0.0 4.0 0.00 0.68 0.46 53 1013.1
20260506204155 61 288 0.0 4.0 0.00 0.68 0.46 53 1013.3
20260506203912 61 315 0.0 3.0 0.00 0.68 0.46 52 1013.4
20260506203152 61 275 1.0 7.0 0.00 0.68 0.46 54 1013.2
20260506202651 62 271 1.0 7.0 0.00 0.68 0.46 49 1013.4
20260506202146 62 230 0.0 4.0 0.00 0.68 0.46 53 1013.1
20260506201905 62 267 0.0 7.0 0.00 0.68 0.46 55 1013.1
20260506201146 61 322 0.0 7.0 0.00 0.68 0.46 51 1012.9
20260506200905 61 302 0.0 1.0 0.00 0.68 0.46 54 1012.9
20260506200140 61 302 0.0 2.0 0.00 0.68 0.46 53 1012.9
20260506195640 61 302 0.0 2.0 0.00 0.68 0.46 56 1013.1
20260506195138 61 269 0.0 2.0 0.00 0.68 0.46 52 1013.1
20260506194901 62 223 0.0 2.0 0.00 0.68 0.46 53 1013.2
20260506194136 61 250 1.0 6.0 0.00 0.68 0.46 51 1013.3
20260506193632 62 249 1.0 7.0 0.00 0.68 0.46 49 1013.4